Regional Weather Roundup
Issued by NWS Mobile, AL

Home | Current Version | Previous Version | Text Only | Print | Product List | Glossary On
Versions: 1 2 3 4 5 6 7 8 9 10 11 12 13 14 15 16 17 18 19 20 21 22 23 24 25 26 27 28 29 30 31 32 33 34 35 36 37 38 39 40 41 42 43 44 45 46 47 48 49 50
000
ASUS44 KMOB 052012
RWRMOB
REGIONAL WEATHER ROUNDUP
NATIONAL WEATHER SERVICE MOBILE AL
200 PM CST THU MAR 05 2015

NOTE: "FAIR" INDICATES FEW OR NO CLOUDS BELOW 12,000 FEET WITH NO
      SIGNIFICANT WEATHER AND/OR OBSTRUCTIONS TO VISIBILITY.

  * THESE STATIONS ARE PART OF THE UNIVERSITY OF SOUTH ALABAMA
    MESONET AND ARE NOT UNDER NWS OR FAA QUALITY CONTROL.

ALZ061>064-052100-
COASTAL ALABAMA

CITY           SKY/WX    TMP DP  RH WIND       PRES   REMARKS
MOBILE REG APT CLOUDY    43  36  76 N23G31    30.20F
BROOKLEY FIELD CLOUDY    47  38  71 N26G33    30.19F
USA CAMPUS*      N/A     45  37  76 NE5       30.20S
DOG RIVER*     NOT AVBL


CITY           SKY/WX    TMP DP  RH WIND       PRES   REMARKS
MOUNT VERNON*    N/A     41  36  81 NW9       30.24S
SARALAND*      NOT AVBL
BAY MINETTE*   NOT AVBL
LOXLEY*          N/A     43  39  87 N12       30.17S
ROBERTSDALE*     N/A     46  39  76 W16       30.16R
FAIRHOPE*      NOT AVBL
ELBERTA*         N/A     48  41  76 NW16      30.11S
FOLEY*         NOT AVBL
GRAND BAY*       N/A     45  39  81 VRB18     30.17F
DAUPHIN ISLND* NOT AVBL
BON SCOUR NWR* NOT AVBL
GULF SHORES    MOSUNNY   54  42  66 N14G24    30.11F

$$

ALZ051>060-052100-
INTERIOR SOUTHWEST AND SOUTH CENTRAL ALABAMA

CITY           SKY/WX    TMP DP  RH WIND       PRES   REMARKS
GREENVILLE     CLOUDY    41  36  82 NW13G22   30.18R
EVERGREEN      CLOUDY    41  37  86 N13G22    30.20S
CASTLEBERRY*   NOT AVBL
ATMORE*          N/A     41  39  93 N21       30.20F
DIXIE*         NOT AVBL
ANDALUSIA/OPP  CLOUDY    54  41  61 NW20      30.14
ANDALUSIA*       N/A     46  41  81 N16       30.14R
FLORALA APT    MOSUNNY   57  46  66 N10G23    30.12R
FLORALA*         N/A     57  46  67 NW9       30.08S

$$

FLZ001>006-052100-
WESTERN FLORIDA PANHANDLE

CITY           SKY/WX    TMP DP  RH WIND       PRES   REMARKS
PENSACOLA      MOSUNNY   57  43  59 N22G31    30.10S
NAS PENSACOLA  PTSUNNY   57  45  64 N17G28    30.10
MILTON         PTSUNNY   52  42  69 N20G28    30.13
WHTNG S FIELD  PTSUNNY   57  42  57 N20G28    30.13R


CITY           SKY/WX    TMP DP  RH WIND       PRES   REMARKS
WALNUT HILL*   NOT AVBL
JAY*             N/A     45  37  76 VRB18     30.17R
DUKE FIELD     PTSUNNY   59  49  69 N21G26    30.07F
CRESTVIEW      MOSUNNY   61  49  64 NW14G22   30.11S
VALPARAISO     PTSUNNY   59  50  72 N16       30.07F
DESTIN         PTSUNNY   59  51  75 N16       30.08F

$$

MSZ076-079-052100-
INTERIOR SOUTHEAST MISSISSIPPI

CITY           SKY/WX    TMP DP  RH WIND       PRES   REMARKS
LEAKESVILLE*     N/A     37  36  93 N10       30.27R
AGRICOLA*      NOT AVBL

$$

MARINE OBSERVATIONS

STATION/POSITION TIME  TEMP    WIND        PRES    WAVE
                       AIR SEA DIR/SP/G            HT/PER
                 (UTC) (F)     (DEG/KT/KT) (MB)    (FT/S)
E DAUPHIN ISLAND NOT AVBL
12 S ORANGE BCH  NOT AVBL

$$

SELECTED LOCATIONS ACROSS THE REGION

CITY           SKY/WX    TMP DP  RH WIND       PRES   REMARKS
NEW ORLEANS    CLOUDY    39  32  76 N26G37    30.27R
GULFPORT       CLOUDY    44  36  73 N21G33    30.20F
PASCAGOULA AP  CLOUDY    46  38  73 N20G31    30.18R
PASCAGOULA*    NOT AVBL
HATTIESBURG    CLOUDY    36  31  82 N13G22    30.34R
LAUREL         CLOUDY    34  28  80 N18G30    30.33R WCI  23
MERIDIAN       MIX PCPN  31  27  85 N21G29    30.35R WCI  18
JACKSON        CLOUDY    30  26  85 N16       30.41S WCI  19
MONTGOMERY     CLOUDY    42  36  79 NW17G25   30.20R
TROY           CLOUDY    45  39  79 NW15      30.17R
KINSTON*       NOT AVBL
GENEVA*        NOT AVBL
ASHFORD*         N/A     46  41  81 N16       30.14R
DOTHAN         CLOUDY    54  52  94 NW13      30.10S
PANAMA CITY    CLOUDY    57  53  86 N10       30.05F

$$



USA.gov is the U.S. government's official web portal to all federal, state and local government web resources and services.